Time,TemperatureF,DewpointF,PressureIn,WindDirection,WindDirectionDegrees,WindSpeedMPH,WindSpeedGustMPH,Humidity,HourlyPrecipIn,Conditions,Clouds,dailyrainin,SoftwareType,DateUTC
2014-07-29 00:03:00,83.2,63.2,29.86,East,98,0.0,0.0,51,0.00,,,0.00,Wunderground v.1.15,2014-07-29 07:03:00,
2014-07-29 00:09:00,83.2,63.2,29.86,East,98,0.0,0.0,51,0.00,,,0.00,Wunderground v.1.15,2014-07-29 07:09:00,
2014-07-29 00:15:00,83.0,63.6,29.86,East,98,0.0,0.0,52,0.00,,,0.00,Wunderground v.1.15,2014-07-29 07:15:00,
2014-07-29 00:21:00,83.0,64.1,29.86,East,98,0.0,0.0,53,0.00,,,0.00,Wunderground v.1.15,2014-07-29 07:21:00,
2014-07-29 00:27:00,83.0,64.1,29.86,East,98,0.0,0.0,53,0.00,,,0.00,Wunderground v.1.15,2014-07-29 07:27:00,
2014-07-29 00:32:00,83.0,64.1,29.86,East,98,0.0,1.0,53,0.00,,,0.00,Wunderground v.1.15,2014-07-29 07:32:00,
2014-07-29 00:37:00,83.0,64.6,29.86,East,98,0.0,1.0,54,0.00,,,0.00,Wunderground v.1.15,2014-07-29 07:37:00,
2014-07-29 00:43:00,83.0,64.6,29.86,East,98,0.0,0.0,54,0.00,,,0.00,Wunderground v.1.15,2014-07-29 07:43:00,
2014-07-29 00:48:00,82.9,64.5,29.86,East,98,0.0,0.0,54,0.00,,,0.00,Wunderground v.1.15,2014-07-29 07:48:00,
2014-07-29 00:54:00,82.8,65.0,29.85,East,98,0.0,0.0,55,0.00,,,0.00,Wunderground v.1.15,2014-07-29 07:54:00,
2014-07-29 00:59:00,82.7,64.9,29.85,East,98,0.0,0.0,55,0.00,,,0.00,Wunderground v.1.15,2014-07-29 07:59:00,
2014-07-29 01:04:00,82.5,64.7,29.85,East,98,0.0,0.0,55,0.00,,,0.00,Wunderground v.1.15,2014-07-29 08:04:00,
2014-07-29 01:09:00,82.2,64.9,29.86,East,98,0.0,0.0,56,0.00,,,0.00,Wunderground v.1.15,2014-07-29 08:09:00,
2014-07-29 01:14:00,82.0,64.8,29.86,East,98,0.0,0.0,56,0.00,,,0.00,Wunderground v.1.15,2014-07-29 08:14:00,
2014-07-29 01:20:00,81.8,65.1,29.86,East,98,0.0,0.0,57,0.00,,,0.00,Wunderground v.1.15,2014-07-29 08:20:00,
2014-07-29 01:25:00,81.8,65.1,29.85,East,98,0.0,0.0,57,0.00,,,0.00,Wunderground v.1.15,2014-07-29 08:25:00,
2014-07-29 01:30:00,81.6,64.9,29.85,East,98,0.0,0.0,57,0.00,,,0.00,Wunderground v.1.15,2014-07-29 08:30:00,
2014-07-29 01:36:00,81.4,65.2,29.85,East,98,0.0,0.0,58,0.00,,,0.00,Wunderground v.1.15,2014-07-29 08:36:00,
2014-07-29 01:41:00,81.2,65.0,29.85,East,98,0.0,0.0,58,0.00,,,0.00,Wunderground v.1.15,2014-07-29 08:41:00,
2014-07-29 01:46:00,81.1,64.9,29.85,East,98,0.0,0.0,58,0.00,,,0.00,Wunderground v.1.15,2014-07-29 08:46:00,
2014-07-29 01:51:00,80.9,64.7,29.85,East,98,0.0,0.0,58,0.00,,,0.00,Wunderground v.1.15,2014-07-29 08:51:00,
2014-07-29 01:57:00,80.8,65.1,29.85,East,98,0.0,0.0,59,0.00,,,0.00,Wunderground v.1.15,2014-07-29 08:57:00,
2014-07-29 02:02:00,80.6,65.4,29.85,East,98,0.0,0.0,60,0.00,,,0.00,Wunderground v.1.15,2014-07-29 09:02:00,
2014-07-29 02:07:00,80.5,65.3,29.85,East,98,0.0,0.0,60,0.00,,,0.00,Wunderground v.1.15,2014-07-29 09:07:00,
2014-07-29 02:12:00,80.5,65.3,29.85,East,98,0.0,0.0,60,0.00,,,0.00,Wunderground v.1.15,2014-07-29 09:12:00,
2014-07-29 02:17:00,80.3,65.1,29.85,East,98,0.0,0.0,60,0.00,,,0.00,Wunderground v.1.15,2014-07-29 09:17:00,
2014-07-29 02:22:00,80.2,65.1,29.85,East,98,0.0,0.0,60,0.00,,,0.00,Wunderground v.1.15,2014-07-29 09:22:00,
2014-07-29 02:27:00,80.2,65.1,29.85,East,98,0.0,0.0,60,0.00,,,0.00,Wunderground v.1.15,2014-07-29 09:27:00,
2014-07-29 02:32:00,80.0,65.3,29.84,East,98,0.0,0.0,61,0.00,,,0.00,Wunderground v.1.15,2014-07-29 09:32:00,
2014-07-29 02:37:00,79.8,64.7,29.84,East,98,0.0,0.0,60,0.00,,,0.00,Wunderground v.1.15,2014-07-29 09:37:00,
2014-07-29 02:42:00,79.7,65.1,29.85,East,98,0.0,0.0,61,0.00,,,0.00,Wunderground v.1.15,2014-07-29 09:42:00,
2014-07-29 02:47:00,79.6,65.0,29.84,East,98,0.0,0.0,61,0.00,,,0.00,Wunderground v.1.15,2014-07-29 09:47:00,
2014-07-29 02:52:00,79.4,64.8,29.84,East,98,0.0,0.0,61,0.00,,,0.00,Wunderground v.1.15,2014-07-29 09:52:00,
2014-07-29 02:57:00,79.3,65.1,29.84,East,98,0.0,0.0,62,0.00,,,0.00,Wunderground v.1.15,2014-07-29 09:57:00,
2014-07-29 03:03:00,79.1,65.0,29.84,East,98,0.0,0.0,62,0.00,,,0.00,Wunderground v.1.15,2014-07-29 10:03:00,
2014-07-29 03:07:00,79.0,64.9,29.84,East,98,0.0,0.0,62,0.00,,,0.00,Wunderground v.1.15,2014-07-29 10:07:00,
2014-07-29 03:13:00,78.9,64.8,29.84,East,98,0.0,0.0,62,0.00,,,0.00,Wunderground v.1.15,2014-07-29 10:13:00,
2014-07-29 03:18:00,78.8,64.7,29.84,East,98,0.0,0.0,62,0.00,,,0.00,Wunderground v.1.15,2014-07-29 10:18:00,
2014-07-29 03:23:00,78.7,65.0,29.85,East,98,0.0,0.0,63,0.00,,,0.00,Wunderground v.1.15,2014-07-29 10:23:00,
2014-07-29 03:28:00,78.5,64.9,29.85,East,98,0.0,0.0,63,0.00,,,0.00,Wunderground v.1.15,2014-07-29 10:28:00,
2014-07-29 03:33:00,78.5,64.9,29.85,East,98,0.0,0.0,63,0.00,,,0.00,Wunderground v.1.15,2014-07-29 10:33:00,
2014-07-29 03:38:00,78.4,65.2,29.85,East,98,0.0,0.0,64,0.00,,,0.00,Wunderground v.1.15,2014-07-29 10:38:00,
2014-07-29 03:43:00,78.3,65.1,29.85,East,98,0.0,0.0,64,0.00,,,0.00,Wunderground v.1.15,2014-07-29 10:43:00,
2014-07-29 03:48:00,78.2,65.0,29.85,East,98,0.0,0.0,64,0.00,,,0.00,Wunderground v.1.15,2014-07-29 10:48:00,
2014-07-29 03:53:00,78.2,65.0,29.85,East,98,0.0,0.0,64,0.00,,,0.00,Wunderground v.1.15,2014-07-29 10:53:00,
2014-07-29 03:58:00,78.1,64.9,29.85,East,98,0.0,0.0,64,0.00,,,0.00,Wunderground v.1.15,2014-07-29 10:58:00,
2014-07-29 04:03:00,78.0,65.3,29.85,East,98,0.0,0.0,65,0.00,,,0.00,Wunderground v.1.15,2014-07-29 11:03:00,
2014-07-29 04:08:00,77.9,65.6,29.85,East,98,0.0,0.0,66,0.00,,,0.00,Wunderground v.1.15,2014-07-29 11:08:00,
2014-07-29 04:13:00,77.8,65.5,29.85,East,98,0.0,0.0,66,0.00,,,0.00,Wunderground v.1.15,2014-07-29 11:13:00,
2014-07-29 04:18:00,77.7,65.4,29.85,East,98,0.0,0.0,66,0.00,,,0.00,Wunderground v.1.15,2014-07-29 11:18:00,
2014-07-29 04:23:00,77.6,65.3,29.85,East,98,0.0,0.0,66,0.00,,,0.00,Wunderground v.1.15,2014-07-29 11:23:00,
2014-07-29 04:28:00,77.4,65.1,29.85,East,98,0.0,0.0,66,0.00,,,0.00,Wunderground v.1.15,2014-07-29 11:28:00,
2014-07-29 04:33:00,77.3,65.5,29.85,East,98,0.0,0.0,67,0.00,,,0.00,Wunderground v.1.15,2014-07-29 11:33:00,
2014-07-29 04:38:00,77.3,65.1,29.85,East,98,0.0,0.0,66,0.00,,,0.00,Wunderground v.1.15,2014-07-29 11:38:00,
2014-07-29 04:43:00,77.1,64.9,29.85,East,98,0.0,0.0,66,0.00,,,0.00,Wunderground v.1.15,2014-07-29 11:43:00,
2014-07-29 04:48:00,77.0,65.2,29.85,East,98,0.0,0.0,67,0.00,,,0.00,Wunderground v.1.15,2014-07-29 11:48:00,
2014-07-29 04:53:00,76.9,65.1,29.86,East,98,0.0,0.0,67,0.00,,,0.00,Wunderground v.1.15,2014-07-29 11:53:00,
2014-07-29 04:59:00,76.8,65.0,29.86,East,98,0.0,0.0,67,0.00,,,0.00,Wunderground v.1.15,2014-07-29 11:59:00,
2014-07-29 05:04:00,76.7,64.9,29.86,East,98,0.0,0.0,67,0.00,,,0.00,Wunderground v.1.15,2014-07-29 12:04:00,
2014-07-29 05:09:00,76.5,65.1,29.85,East,98,0.0,0.0,68,0.00,,,0.00,Wunderground v.1.15,2014-07-29 12:09:00,
2014-07-29 05:14:00,76.3,65.4,29.86,East,98,0.0,0.0,69,0.00,,,0.00,Wunderground v.1.15,2014-07-29 12:14:00,
2014-07-29 05:19:00,76.2,65.3,29.86,East,98,0.0,0.0,69,0.00,,,0.00,Wunderground v.1.15,2014-07-29 12:19:00,
2014-07-29 05:24:00,76.0,65.5,29.86,East,98,0.0,0.0,70,0.00,,,0.00,Wunderground v.1.15,2014-07-29 12:24:00,
2014-07-29 05:29:00,75.8,65.3,29.86,East,98,0.0,0.0,70,0.00,,,0.00,Wunderground v.1.15,2014-07-29 12:29:00,
2014-07-29 05:34:00,75.8,65.3,29.86,East,98,0.0,0.0,70,0.00,,,0.00,Wunderground v.1.15,2014-07-29 12:34:00,
2014-07-29 05:39:00,75.7,65.2,29.86,East,98,0.0,0.0,70,0.00,,,0.00,Wunderground v.1.15,2014-07-29 12:39:00,
2014-07-29 05:44:00,75.6,65.1,29.86,East,98,0.0,0.0,70,0.00,,,0.00,Wunderground v.1.15,2014-07-29 12:44:00,
2014-07-29 05:49:00,75.5,65.0,29.86,East,98,0.0,0.0,70,0.00,,,0.00,Wunderground v.1.15,2014-07-29 12:49:00,
2014-07-29 05:54:00,75.5,65.0,29.86,East,98,0.0,0.0,70,0.00,,,0.00,Wunderground v.1.15,2014-07-29 12:54:00,
2014-07-29 05:59:00,75.4,64.9,29.86,East,98,0.0,0.0,70,0.00,,,0.00,Wunderground v.1.15,2014-07-29 12:59:00,
2014-07-29 06:04:00,75.5,65.4,29.86,East,98,0.0,0.0,71,0.00,,,0.00,Wunderground v.1.15,2014-07-29 13:04:00,
2014-07-29 06:09:00,75.5,65.4,29.86,East,98,0.0,0.0,71,0.00,,,0.00,Wunderground v.1.15,2014-07-29 13:09:00,
2014-07-29 06:14:00,75.7,65.6,29.86,East,98,0.0,0.0,71,0.00,,,0.00,Wunderground v.1.15,2014-07-29 13:14:00,
2014-07-29 06:19:00,76.0,65.9,29.87,East,98,0.0,0.0,71,0.00,,,0.00,Wunderground v.1.15,2014-07-29 13:19:00,
2014-07-29 06:24:00,76.7,66.2,29.87,East,98,0.0,0.0,70,0.00,,,0.00,Wunderground v.1.15,2014-07-29 13:24:00,
2014-07-29 06:29:00,77.4,66.4,29.87,East,98,0.0,2.0,69,0.00,,,0.00,Wunderground v.1.15,2014-07-29 13:29:00,
2014-07-29 06:34:00,78.0,67.0,29.87,East,98,0.0,1.0,69,0.00,,,0.00,Wunderground v.1.15,2014-07-29 13:34:00,
2014-07-29 06:39:00,78.7,67.2,29.87,East,98,0.0,3.0,68,0.00,,,0.00,Wunderground v.1.15,2014-07-29 13:39:00,
2014-07-29 06:44:00,79.2,67.3,29.87,East,98,2.0,3.0,67,0.00,,,0.00,Wunderground v.1.15,2014-07-29 13:44:00,
2014-07-29 06:49:00,79.6,67.2,29.87,East,98,0.0,5.0,66,0.00,,,0.00,Wunderground v.1.15,2014-07-29 13:49:00,
2014-07-29 06:54:00,80.0,67.2,29.87,East,98,0.0,6.0,65,0.00,,,0.00,Wunderground v.1.15,2014-07-29 13:54:00,
2014-07-29 07:00:00,80.3,67.0,29.88,East,98,0.0,0.0,64,0.00,,,0.00,Wunderground v.1.15,2014-07-29 14:00:00,
2014-07-29 07:05:00,80.7,66.9,29.87,East,98,0.0,0.0,63,0.00,,,0.00,Wunderground v.1.15,2014-07-29 14:05:00,
2014-07-29 07:10:00,81.2,66.9,29.87,East,98,2.0,2.0,62,0.00,,,0.00,Wunderground v.1.15,2014-07-29 14:10:00,
2014-07-29 07:15:00,81.7,66.9,29.88,East,98,1.0,2.0,61,0.00,,,0.00,Wunderground v.1.15,2014-07-29 14:15:00,
2014-07-29 07:20:00,82.3,67.0,29.88,East,98,0.0,0.0,60,0.00,,,0.00,Wunderground v.1.15,2014-07-29 14:20:00,
2014-07-29 07:25:00,82.8,67.0,29.88,East,98,0.0,1.0,59,0.00,,,0.00,Wunderground v.1.15,2014-07-29 14:25:00,
2014-07-29 07:30:00,83.4,67.1,29.88,East,98,0.0,0.0,58,0.00,,,0.00,Wunderground v.1.15,2014-07-29 14:30:00,
2014-07-29 07:35:00,83.9,66.5,29.88,East,98,0.0,0.0,56,0.00,,,0.00,Wunderground v.1.15,2014-07-29 14:35:00,
2014-07-29 07:40:00,84.4,67.0,29.88,East,98,1.0,1.0,56,0.00,,,0.00,Wunderground v.1.15,2014-07-29 14:40:00,
2014-07-29 07:45:00,84.9,66.4,29.88,East,98,0.0,1.0,54,0.00,,,0.00,Wunderground v.1.15,2014-07-29 14:45:00,
2014-07-29 07:50:00,85.3,66.8,29.88,East,98,0.0,0.0,54,0.00,,,0.00,Wunderground v.1.15,2014-07-29 14:50:00,
2014-07-29 07:55:00,85.7,67.1,29.88,East,98,0.0,0.0,54,0.00,,,0.00,Wunderground v.1.15,2014-07-29 14:55:00,
2014-07-29 08:00:00,86.2,67.1,29.88,East,98,0.0,0.0,53,0.00,,,0.00,Wunderground v.1.15,2014-07-29 15:00:00,
2014-07-29 08:05:00,86.7,67.0,29.88,East,98,0.0,1.0,52,0.00,,,0.00,Wunderground v.1.15,2014-07-29 15:05:00,
2014-07-29 08:10:00,87.1,66.8,29.88,East,98,0.0,1.0,51,0.00,,,0.00,Wunderground v.1.15,2014-07-29 15:10:00,
2014-07-29 08:15:00,87.5,66.0,29.88,East,98,0.0,2.0,49,0.00,,,0.00,Wunderground v.1.15,2014-07-29 15:15:00,
2014-07-29 08:20:00,87.8,65.7,29.88,East,98,0.0,1.0,48,0.00,,,0.00,Wunderground v.1.15,2014-07-29 15:20:00,
2014-07-29 08:25:00,88.2,66.0,29.88,East,98,0.0,1.0,48,0.00,,,0.00,Wunderground v.1.15,2014-07-29 15:25:00,
2014-07-29 08:31:00,88.4,65.6,29.88,East,98,0.0,1.0,47,0.00,,,0.00,Wunderground v.1.15,2014-07-29 15:31:00,
2014-07-29 08:36:00,88.9,64.8,29.88,East,98,0.0,1.0,45,0.00,,,0.00,Wunderground v.1.15,2014-07-29 15:36:00,
2014-07-29 08:41:00,89.5,64.7,29.88,East,98,0.0,1.0,44,0.00,,,0.00,Wunderground v.1.15,2014-07-29 15:41:00,
2014-07-29 08:46:00,90.0,63.8,29.88,East,98,0.0,1.0,42,0.00,,,0.00,Wunderground v.1.15,2014-07-29 15:46:00,
2014-07-29 08:51:00,90.4,64.9,29.88,East,98,0.0,0.0,43,0.00,,,0.00,Wunderground v.1.15,2014-07-29 15:51:00,
2014-07-29 08:56:00,90.9,63.9,29.88,East,98,0.0,1.0,41,0.00,,,0.00,Wunderground v.1.15,2014-07-29 15:56:00,
2014-07-29 09:01:00,91.6,63.9,29.88,East,98,1.0,2.0,40,0.00,,,0.00,Wunderground v.1.15,2014-07-29 16:01:00,
2014-07-29 09:06:00,91.9,63.4,29.88,East,98,0.0,2.0,39,0.00,,,0.00,Wunderground v.1.15,2014-07-29 16:06:00,
2014-07-29 09:11:00,92.3,63.0,29.88,East,98,0.0,1.0,38,0.00,,,0.00,Wunderground v.1.15,2014-07-29 16:11:00,
2014-07-29 09:16:00,92.6,62.5,29.87,East,98,0.0,2.0,37,0.00,,,0.00,Wunderground v.1.15,2014-07-29 16:16:00,
2014-07-29 09:21:00,93.1,63.0,29.88,East,98,0.0,1.0,37,0.00,,,0.00,Wunderground v.1.15,2014-07-29 16:21:00,
2014-07-29 09:26:00,93.3,60.7,29.88,East,98,0.0,3.0,34,0.00,,,0.00,Wunderground v.1.15,2014-07-29 16:26:00,
2014-07-29 09:31:00,93.6,61.0,29.88,East,98,0.0,1.0,34,0.00,,,0.00,Wunderground v.1.15,2014-07-29 16:31:00,
2014-07-29 09:36:00,93.9,60.4,29.88,East,92,2.0,5.0,33,0.00,,,0.00,Wunderground v.1.15,2014-07-29 16:36:00,
2014-07-29 09:41:00,94.0,62.2,29.88,ENE,77,3.0,3.0,35,0.00,,,0.00,Wunderground v.1.15,2014-07-29 16:41:00,
2014-07-29 09:46:00,94.5,61.0,29.88,ENE,77,0.0,3.0,33,0.00,,,0.00,Wunderground v.1.15,2014-07-29 16:46:00,
2014-07-29 09:51:00,94.6,60.2,29.89,ENE,77,0.0,3.0,32,0.00,,,0.00,Wunderground v.1.15,2014-07-29 16:51:00,
2014-07-29 09:56:00,95.0,61.4,29.88,ENE,77,0.0,3.0,33,0.00,,,0.00,Wunderground v.1.15,2014-07-29 16:56:00,
2014-07-29 10:01:00,95.4,60.0,29.89,ENE,77,0.0,2.0,31,0.00,,,0.00,Wunderground v.1.15,2014-07-29 17:01:00,
2014-07-29 10:06:00,95.8,59.4,29.89,ENE,77,0.0,2.0,30,0.00,,,0.00,Wunderground v.1.15,2014-07-29 17:06:00,
2014-07-29 10:11:00,96.5,60.9,29.88,ENE,77,0.0,0.0,31,0.00,,,0.00,Wunderground v.1.15,2014-07-29 17:11:00,
2014-07-29 10:16:00,97.1,60.5,29.88,ENE,77,3.0,4.0,30,0.00,,,0.00,Wunderground v.1.15,2014-07-29 17:16:00,
2014-07-29 10:21:00,97.2,60.6,29.88,ENE,77,0.0,2.0,30,0.00,,,0.00,Wunderground v.1.15,2014-07-29 17:21:00,
2014-07-29 10:26:00,96.9,60.3,29.88,ENE,77,0.0,3.0,30,0.00,,,0.00,Wunderground v.1.15,2014-07-29 17:26:00,
2014-07-29 10:31:00,96.9,59.4,29.88,ENE,77,3.0,4.0,29,0.00,,,0.00,Wunderground v.1.15,2014-07-29 17:31:00,
2014-07-29 10:37:00,97.1,59.6,29.88,ENE,77,0.0,4.0,29,0.00,,,0.00,Wunderground v.1.15,2014-07-29 17:37:00,
2014-07-29 10:42:00,97.3,59.7,29.88,ENE,77,0.0,3.0,29,0.00,,,0.00,Wunderground v.1.15,2014-07-29 17:42:00,
2014-07-29 10:47:00,97.5,59.9,29.87,ENE,77,2.0,3.0,29,0.00,,,0.00,Wunderground v.1.15,2014-07-29 17:47:00,
2014-07-29 10:52:00,97.8,60.2,29.87,ENE,77,0.0,4.0,29,0.00,,,0.00,Wunderground v.1.15,2014-07-29 17:52:00,
2014-07-29 10:57:00,98.2,61.5,29.87,ENE,77,0.0,4.0,30,0.00,,,0.00,Wunderground v.1.15,2014-07-29 17:57:00,
2014-07-29 11:02:00,99.2,60.4,29.87,ENE,76,0.0,5.0,28,0.00,,,0.00,Wunderground v.1.15,2014-07-29 18:02:00,
2014-07-29 11:07:00,99.9,61.0,29.86,ESE,105,2.0,5.0,28,0.00,,,0.00,Wunderground v.1.15,2014-07-29 18:07:00,
2014-07-29 11:12:00,99.9,59.9,29.86,ESE,110,5.0,5.0,27,0.00,,,0.00,Wunderground v.1.15,2014-07-29 18:12:00,
2014-07-29 11:17:00,99.1,59.3,29.86,ESE,109,0.0,7.0,27,0.00,,,0.00,Wunderground v.1.15,2014-07-29 18:17:00,
2014-07-29 11:22:00,98.7,59.9,29.86,ESE,109,0.0,2.0,28,0.00,,,0.00,Wunderground v.1.15,2014-07-29 18:22:00,
2014-07-29 11:27:00,99.3,60.5,29.86,ESE,107,0.0,4.0,28,0.00,,,0.00,Wunderground v.1.15,2014-07-29 18:27:00,
2014-07-29 11:32:00,100.6,59.5,29.85,ESE,112,2.0,3.0,26,0.00,,,0.00,Wunderground v.1.15,2014-07-29 18:32:00,
2014-07-29 11:37:00,100.7,59.6,29.85,West,262,0.0,6.0,26,0.00,,,0.00,Wunderground v.1.15,2014-07-29 18:37:00,
2014-07-29 11:42:00,101.4,59.0,29.85,WSW,248,1.0,4.0,25,0.00,,,0.00,Wunderground v.1.15,2014-07-29 18:42:00,
2014-07-29 11:47:00,101.2,58.9,29.85,SW,236,0.0,4.0,25,0.00,,,0.00,Wunderground v.1.15,2014-07-29 18:47:00,
2014-07-29 11:52:00,101.9,58.3,29.84,SSW,207,0.0,4.0,24,0.00,,,0.00,Wunderground v.1.15,2014-07-29 18:52:00,
2014-07-29 11:57:00,101.6,59.2,29.84,SSE,150,1.0,4.0,25,0.00,,,0.00,Wunderground v.1.15,2014-07-29 18:57:00,
2014-07-29 12:02:00,101.2,60.0,29.84,SE,144,0.0,2.0,26,0.00,,,0.00,Wunderground v.1.15,2014-07-29 19:02:00,
2014-07-29 12:07:00,101.3,59.0,29.84,SE,132,0.0,3.0,25,0.00,,,0.00,Wunderground v.1.15,2014-07-29 19:07:00,
2014-07-29 12:12:00,101.4,60.1,29.84,SE,131,0.0,2.0,26,0.00,,,0.00,Wunderground v.1.15,2014-07-29 19:12:00,
2014-07-29 12:17:00,101.4,59.0,29.83,SE,131,0.0,4.0,25,0.00,,,0.00,Wunderground v.1.15,2014-07-29 19:17:00,
2014-07-29 12:22:00,101.3,59.0,29.83,SE,130,0.0,3.0,25,0.00,,,0.00,Wunderground v.1.15,2014-07-29 19:22:00,
2014-07-29 12:27:00,100.6,58.4,29.83,SE,130,1.0,4.0,25,0.00,,,0.00,Wunderground v.1.15,2014-07-29 19:27:00,
2014-07-29 12:32:00,100.3,59.2,29.83,SE,130,0.0,1.0,26,0.00,,,0.00,Wunderground v.1.15,2014-07-29 19:32:00,
2014-07-29 12:37:00,100.3,59.2,29.83,SE,130,0.0,1.0,26,0.00,,,0.00,Wunderground v.1.15,2014-07-29 19:37:00,
2014-07-29 12:42:00,100.4,59.3,29.83,East,96,0.0,6.0,26,0.00,,,0.00,Wunderground v.1.15,2014-07-29 19:42:00,
2014-07-29 12:47:00,100.1,59.0,29.82,South,188,0.0,6.0,26,0.00,,,0.00,Wunderground v.1.15,2014-07-29 19:47:00,
2014-07-29 12:52:00,99.9,58.9,29.83,WSW,242,0.0,1.0,26,0.00,,,0.00,Wunderground v.1.15,2014-07-29 19:52:00,
2014-07-29 12:57:00,99.7,58.7,29.82,WNW,288,0.0,4.0,26,0.00,,,0.00,Wunderground v.1.15,2014-07-29 19:57:00,
2014-07-29 13:02:00,99.8,57.7,29.82,WNW,289,0.0,3.0,25,0.00,,,0.00,Wunderground v.1.15,2014-07-29 20:02:00,
2014-07-29 13:07:00,100.6,57.2,29.81,SW,233,0.0,6.0,24,0.00,,,0.00,Wunderground v.1.15,2014-07-29 20:07:00,
2014-07-29 13:12:00,101.0,56.4,29.81,WSW,254,4.0,4.0,23,0.00,,,0.00,Wunderground v.1.15,2014-07-29 20:12:00,
2014-07-29 13:17:00,101.1,56.5,29.81,West,270,3.0,10.0,23,0.00,,,0.00,Wunderground v.1.15,2014-07-29 20:17:00,
2014-07-29 13:22:00,101.0,55.2,29.81,West,277,0.0,6.0,22,0.00,,,0.00,Wunderground v.1.15,2014-07-29 20:22:00,
2014-07-29 13:27:00,100.6,54.8,29.81,WNW,292,4.0,8.0,22,0.00,,,0.00,Wunderground v.1.15,2014-07-29 20:27:00,
2014-07-29 13:32:00,100.6,54.8,29.81,WNW,291,4.0,7.0,22,0.00,,,0.00,Wunderground v.1.15,2014-07-29 20:32:00,
2014-07-29 13:37:00,100.7,54.9,29.80,WNW,286,0.0,7.0,22,0.00,,,0.00,Wunderground v.1.15,2014-07-29 20:37:00,
2014-07-29 13:42:00,100.9,55.1,29.80,WNW,288,3.0,7.0,22,0.00,,,0.00,Wunderground v.1.15,2014-07-29 20:42:00,
2014-07-29 13:47:00,100.9,53.8,29.80,NW,321,1.0,10.0,21,0.00,,,0.00,Wunderground v.1.15,2014-07-29 20:47:00,
2014-07-29 13:52:00,101.0,55.2,29.80,WNW,299,5.0,6.0,22,0.00,,,0.00,Wunderground v.1.15,2014-07-29 20:52:00,
2014-07-29 13:57:00,101.5,55.6,29.80,WNW,284,0.0,9.0,22,0.00,,,0.00,Wunderground v.1.15,2014-07-29 20:57:00,
2014-07-29 14:02:00,102.1,54.8,29.79,WNW,282,3.0,4.0,21,0.00,,,0.00,Wunderground v.1.15,2014-07-29 21:02:00,
2014-07-29 14:07:00,102.5,52.4,29.79,West,279,0.0,8.0,19,0.00,,,0.00,Wunderground v.1.15,2014-07-29 21:07:00,
2014-07-29 14:13:00,102.7,52.5,29.78,NW,318,3.0,7.0,19,0.00,,,0.00,Wunderground v.1.15,2014-07-29 21:13:00,
2014-07-29 14:18:00,102.9,54.1,29.78,WNW,286,10.0,11.0,20,0.00,,,0.00,Wunderground v.1.15,2014-07-29 21:18:00,
2014-07-29 14:23:00,103.3,53.0,29.78,WNW,296,4.0,8.0,19,0.00,,,0.00,Wunderground v.1.15,2014-07-29 21:23:00,
2014-07-29 14:28:00,102.9,52.7,29.77,West,276,1.0,8.0,19,0.00,,,0.00,Wunderground v.1.15,2014-07-29 21:28:00,
2014-07-29 14:33:00,102.9,54.1,29.77,West,275,1.0,3.0,20,0.00,,,0.00,Wunderground v.1.15,2014-07-29 21:33:00,
2014-07-29 14:38:00,102.8,54.0,29.77,NW,321,1.0,7.0,20,0.00,,,0.00,Wunderground v.1.15,2014-07-29 21:38:00,
2014-07-29 14:43:00,102.6,55.2,29.77,WNW,290,2.0,11.0,21,0.00,,,0.00,Wunderground v.1.15,2014-07-29 21:43:00,
2014-07-29 14:48:00,102.2,56.2,29.76,WNW,284,12.0,12.0,22,0.00,,,0.00,Wunderground v.1.15,2014-07-29 21:48:00,
2014-07-29 14:53:00,102.2,56.2,29.77,West,275,2.0,6.0,22,0.00,,,0.00,Wunderground v.1.15,2014-07-29 21:53:00,
2014-07-29 14:58:00,102.8,56.7,29.76,West,273,7.0,10.0,22,0.00,,,0.00,Wunderground v.1.15,2014-07-29 21:58:00,
2014-07-29 15:03:00,103.1,56.9,29.76,WSW,253,4.0,10.0,22,0.00,,,0.00,Wunderground v.1.15,2014-07-29 22:03:00,
2014-07-29 15:08:00,103.4,57.1,29.76,WSW,252,0.0,10.0,22,0.00,,,0.00,Wunderground v.1.15,2014-07-29 22:08:00,
2014-07-29 15:13:00,103.8,56.2,29.76,West,277,0.0,8.0,21,0.00,,,0.00,Wunderground v.1.15,2014-07-29 22:13:00,
2014-07-29 15:18:00,103.7,57.4,29.76,West,265,0.0,8.0,22,0.00,,,0.00,Wunderground v.1.15,2014-07-29 22:18:00,
2014-07-29 15:23:00,103.3,55.8,29.76,WNW,288,8.0,10.0,21,0.00,,,0.00,Wunderground v.1.15,2014-07-29 22:23:00,
2014-07-29 15:28:00,103.1,56.9,29.75,WNW,300,2.0,10.0,22,0.00,,,0.00,Wunderground v.1.15,2014-07-29 22:28:00,
2014-07-29 15:33:00,103.1,56.9,29.75,WNW,294,0.0,6.0,22,0.00,,,0.00,Wunderground v.1.15,2014-07-29 22:33:00,
2014-07-29 15:38:00,102.7,56.6,29.75,WNW,301,0.0,6.0,22,0.00,,,0.00,Wunderground v.1.15,2014-07-29 22:38:00,
2014-07-29 15:43:00,102.2,56.2,29.75,NNW,327,0.0,1.0,22,0.00,,,0.00,Wunderground v.1.15,2014-07-29 22:43:00,
2014-07-29 15:48:00,102.1,57.3,29.75,NNW,327,0.0,3.0,23,0.00,,,0.00,Wunderground v.1.15,2014-07-29 22:48:00,
2014-07-29 15:53:00,102.1,57.3,29.75,NW,325,0.0,4.0,23,0.00,,,0.00,Wunderground v.1.15,2014-07-29 22:53:00,
2014-07-29 15:58:00,101.9,57.1,29.74,NW,325,0.0,4.0,23,0.00,,,0.00,Wunderground v.1.15,2014-07-29 22:58:00,
2014-07-29 16:03:00,101.9,54.6,29.74,WNW,298,2.0,7.0,21,0.00,,,0.00,Wunderground v.1.15,2014-07-29 23:03:00,